Galliano, LA

8:56 PM CDT on July 24, 2017 (GMT -0500)
Galliano

Weather History for KGAO - January, 2013

Change the Weather History Date:

Saturday, January 12, 2013

  Actual Average (KHUM) Record (KHUM)
Temperature  
Mean Temperature 55 °F -  
Max Temperature 78 °F 60 °F 79 °F (1949)
Min Temperature 32 °F 39 °F 15 °F (1982)
Degree Days  
Heating Degree Days 10    
Growing Degree Days 5 (Base 50)    
Moisture  
Dew Point 60 °F    
Average Humidity 95    
Maximum Humidity 100    
Minimum Humidity 69    
Precipitation  
Precipitation 0.00 in - - ()
Sea Level Pressure  
Sea Level Pressure 29.99 in    
Wind  
Wind Speed 9 mph (ESE)    
Max Wind Speed 17 mph    
Max Gust Speed 23 mph    
Visibility 6 miles    
Events Fog , Rain    
Averages and records for this station are not official NWS values.
T = Trace of Precipitation, MM = Missing Value Source: NWS Daily Summary

Daily Weather History Graph

Daily Weather History Graph

Search for Another Location

Airport or City:

Trip Planner

Search our weather history database for the weather conditions in past years. The results will help you decide how hot, cold, wet, or windy it might be!

Date:

Astronomy

Jan. 12, 2013 Rise Set
Actual Time 6:56 AM CST 5:22 PM CST
Civil Twilight 6:31 AM CST 5:48 PM CST
Nautical Twilight 6:01 AM CST 6:17 PM CST
Astronomical Twilight 5:32 AM CST 6:46 PM CST
Moon 7:23 AM CST (1/12) 6:42 PM CST (1/12)
Length of Visible Light 11h 17m
Length of Day
10h 25m
New Moon, 1% of the Moon is Illuminated
Jan 12
New Moon
Jan 18
First Quarter
Jan 26
Full
Feb 3
Last Quarter
Feb 10
New

Hourly Weather History & Observations

Time (CST) Temp. Windchill Dew Point Humidity Pressure Visibility Wind Dir Wind Speed Gust Speed Precip Events Conditions
12:15 AM 62.6 °F - 62.6 °F 100% 30.03 in 0.5 mi ESE 6.9 mph - N/A Fog Fog
12:35 AM 62.6 °F - 62.6 °F 100% 30.03 in 0.5 mi ESE 6.9 mph - N/A Fog Fog
12:55 AM 60.8 °F - 60.8 °F 100% 30.03 in 0.8 mi ESE 6.9 mph - N/A   Overcast
1:15 AM 60.8 °F - 60.8 °F 100% 30.03 in 0.5 mi ESE 10.4 mph - N/A Fog Fog
1:35 AM 60.8 °F - 60.8 °F 100% 30.03 in 0.5 mi ESE 10.4 mph - N/A Fog Fog
1:55 AM 60.8 °F - 60.8 °F 100% 30.03 in 0.5 mi ESE 9.2 mph - N/A Fog Fog
2:15 AM 59.0 °F - 59.0 °F 100% 30.03 in 0.5 mi ESE 9.2 mph - N/A Fog Fog
2:35 AM 59.0 °F - 59.0 °F 100% 30.03 in 0.5 mi ESE 9.2 mph - N/A Fog Fog
2:55 AM 59.0 °F - 59.0 °F 100% 30.02 in 0.5 mi ESE 9.2 mph - N/A Fog Fog
3:35 AM 57.2 °F - 57.2 °F 100% 30.01 in 0.5 mi ESE 9.2 mph - N/A Fog Fog
3:55 AM 57.2 °F - 57.2 °F 100% 30.00 in 0.5 mi East 8.1 mph - N/A Fog Fog
4:15 AM 57.2 °F - 57.2 °F 100% 30.00 in 0.5 mi East 6.9 mph - N/A Fog Fog
4:35 AM 55.4 °F - 55.4 °F 100% 30.00 in 0.5 mi East 6.9 mph - N/A Fog Fog
4:55 AM 55.4 °F - 55.4 °F 100% 30.00 in 0.5 mi ESE 6.9 mph - N/A Fog Fog
5:15 AM 55.4 °F - 55.4 °F 100% 30.00 in 0.5 mi ESE 5.8 mph - N/A Fog Fog
5:35 AM 55.4 °F - 55.4 °F 100% 30.01 in 0.5 mi East 4.6 mph - N/A Fog Fog
5:55 AM 53.6 °F - 53.6 °F 100% 30.01 in 0.2 mi ESE 5.8 mph - N/A Fog Fog
6:15 AM 53.6 °F - 53.6 °F 100% 30.02 in 0.5 mi East 5.8 mph - N/A Fog Fog
6:35 AM 53.6 °F - 53.6 °F 100% 30.03 in 0.5 mi East 6.9 mph - N/A Fog Fog
6:55 AM 51.8 °F - 51.8 °F 100% 30.02 in 0.5 mi East 6.9 mph - N/A Fog Fog
7:15 AM 50.0 °F - 50.0 °F 100% 30.03 in 0.2 mi East 6.9 mph - N/A Rain Rain
7:35 AM 35.6 °F 32.8 °F 35.6 °F 100% 30.04 in 0.2 mi ESE 3.5 mph - N/A   Light Drizzle
7:55 AM 33.8 °F 29.6 °F 33.8 °F 100% 30.05 in 0.2 mi ESE 4.6 mph - N/A   Drizzle
8:15 AM 33.8 °F 28.6 °F 33.8 °F 100% 30.05 in 0.2 mi ESE 5.8 mph - N/A   Light Drizzle
8:35 AM 32.0 °F 24.8 °F 32.0 °F 100% 30.06 in 0.2 mi ESE 8.1 mph - N/A Fog Fog
8:55 AM 32.0 °F 24.2 °F 32.0 °F 100% 30.06 in 0.2 mi ESE 9.2 mph - N/A Fog Fog
9:15 AM 32.0 °F 24.8 °F 32.0 °F 100% 30.06 in 0.5 mi ESE 8.1 mph - N/A Fog Fog
9:35 AM 32.0 °F 24.8 °F 32.0 °F 100% 30.06 in 2.0 mi ESE 8.1 mph - N/A   Mist
9:55 AM 32.0 °F 24.8 °F 32.0 °F 100% 30.05 in 5.0 mi ESE 8.1 mph - N/A   Mist
10:15 AM 32.0 °F 23.6 °F 32.0 °F 100% 30.05 in 10.0 mi ESE 10.4 mph - N/A   Unknown
10:35 AM 44.6 °F 38.4 °F 44.6 °F 100% 30.04 in 10.0 mi ESE 12.7 mph - N/A   Unknown
10:55 AM 66.2 °F - 64.4 °F 94% 30.04 in 10.0 mi SE 11.5 mph - N/A   Clear
11:15 AM 75.2 °F - 71.6 °F 89% 30.02 in 10.0 mi SE 13.8 mph 17.3 mph N/A   Clear
11:55 AM 77.0 °F - 73.4 °F 89% 30.00 in 10.0 mi SE 12.7 mph - N/A   Unknown
12:15 PM 77.0 °F - 71.6 °F 83% 30.00 in 10.0 mi SE 15.0 mph 19.6 mph N/A   Unknown
12:35 PM 77.0 °F - 69.8 °F 78% 29.99 in 10.0 mi SE 15.0 mph - N/A   Unknown
12:55 PM 77.0 °F - 69.8 °F 78% 29.98 in 10.0 mi SE 13.8 mph 20.7 mph N/A   Unknown
1:15 PM 78.8 °F - 69.8 °F 74% 29.97 in 10.0 mi SE 17.3 mph 23.0 mph N/A   Unknown
1:35 PM 78.8 °F - 69.8 °F 74% 29.97 in 10.0 mi SE 17.3 mph 21.9 mph N/A   Unknown
1:55 PM 77.0 °F - 69.8 °F 78% 29.97 in 10.0 mi SE 11.5 mph 21.9 mph N/A   Clear
2:15 PM 78.8 °F - 68.0 °F 69% 29.97 in 10.0 mi SSE 16.1 mph 20.7 mph N/A   Clear
2:35 PM 78.8 °F - 68.0 °F 69% 29.97 in 10.0 mi SE 15.0 mph 19.6 mph N/A   Clear
2:55 PM 78.8 °F - 68.0 °F 69% 29.97 in 10.0 mi SE 17.3 mph 20.7 mph N/A   Unknown
3:15 PM 77.0 °F - 69.8 °F 78% 29.96 in 10.0 mi SE 13.8 mph 18.4 mph N/A   Unknown
3:35 PM 77.0 °F - 69.8 °F 78% 29.96 in 10.0 mi SE 13.8 mph 18.4 mph N/A   Unknown
3:55 PM 75.2 °F - 69.8 °F 83% 29.96 in 10.0 mi SE 13.8 mph - N/A   Unknown
4:15 PM 73.4 °F - 69.8 °F 88% 29.96 in 10.0 mi ESE 11.5 mph 17.3 mph N/A   Clear
4:35 PM 73.4 °F - 69.8 °F 88% 29.96 in 10.0 mi ESE 8.1 mph - N/A   Scattered Clouds
4:55 PM 73.4 °F - 69.8 °F 88% 29.96 in 10.0 mi ESE 8.1 mph - N/A   Scattered Clouds
5:15 PM 71.6 °F - 69.8 °F 94% 29.95 in 10.0 mi ESE 9.2 mph - N/A   Clear
5:35 PM 71.6 °F - 69.8 °F 94% 29.96 in 10.0 mi ESE 8.1 mph - N/A   Clear
5:55 PM 69.8 °F - 69.8 °F 100% 29.96 in 10.0 mi ESE 8.1 mph - N/A   Unknown
6:15 PM 69.8 °F - 68.0 °F 94% 29.95 in 7.0 mi ESE 6.9 mph - N/A   Unknown
6:35 PM 68.0 °F - 68.0 °F 100% 29.95 in 10.0 mi ESE 9.2 mph - N/A   Unknown
7:15 PM 68.0 °F - 68.0 °F 100% 29.94 in 10.0 mi ESE 6.9 mph - N/A   Unknown
7:35 PM 66.2 °F - 66.2 °F 100% 29.94 in 7.0 mi ESE 8.1 mph - N/A   Unknown
7:55 PM 66.2 °F - 66.2 °F 100% 29.94 in 10.0 mi ESE 8.1 mph - N/A   Unknown
8:15 PM 66.2 °F - 66.2 °F 100% 29.93 in 10.0 mi ESE 9.2 mph - N/A   Unknown
8:35 PM 66.2 °F - 66.2 °F 100% 29.94 in 10.0 mi ESE 9.2 mph - N/A   Unknown
8:55 PM 66.2 °F - 66.2 °F 100% 29.93 in 7.0 mi ESE 11.5 mph - N/A   Unknown
9:15 PM 66.2 °F - 66.2 °F 100% 29.93 in 7.0 mi ESE 12.7 mph 18.4 mph N/A   Unknown
9:35 PM 64.4 °F - 64.4 °F 100% 29.94 in 7.0 mi ESE 9.2 mph - N/A   Unknown
9:55 PM 64.4 °F - 64.4 °F 100% 29.94 in 7.0 mi ESE 9.2 mph - N/A   Unknown
10:15 PM 64.4 °F - 64.4 °F 100% 29.94 in 7.0 mi ESE 10.4 mph - N/A   Unknown
10:35 PM 64.4 °F - 64.4 °F 100% 29.93 in 7.0 mi ESE 11.5 mph - N/A   Unknown
10:55 PM 62.6 °F - 62.6 °F 100% 29.94 in 7.0 mi ESE 9.2 mph - N/A   Unknown
11:15 PM 62.6 °F - 62.6 °F 100% 29.93 in 7.0 mi ESE 9.2 mph - N/A   Unknown
11:35 PM 62.6 °F - 62.6 °F 100% 29.93 in 7.0 mi ESE 10.4 mph - N/A   Unknown
11:55 PM 64.4 °F - 64.4 °F 100% 29.93 in 7.0 mi SE 9.2 mph - N/A   Unknown